Flag for U.S.A. Weather past 2 weeks in Santa Clara, California, U.S.A.

Now
73 °F

Passing clouds.


Feels Like: 77 °F
Forecast: 48 / 75 °F
Wind: 5 mph from Northwest

Location: San Jose International Airport

Current Time: Mar 29, 2015 at 1:57:22 PM

Latest Report: Mar 29, 2015 at 12:53 PM


Visibility: 10 mi

Pressure: 30.08 "Hg

Humidity: 34%

Dew point: 43 °F

Location of Santa ClaraLocation

Historic Weather in Santa Clara — Graph

°F

Santa Clara temperature yesterday

Maximum temperature yesterday: 77 °F (at 4:53 PM)
Minimum temperature yesterday: 51 °F (at 4:53 AM)
Average temperature yesterday: 62 °F

Past Weeks' High & Low Weather Summary

 TemperatureHumidityPressure
High88 °F (Mar 14, 1:53 PM)94% (Mar 27, 6:57 AM)30.31 "Hg (Mar 27, 6:57 AM)
Low48 °F (Mar 18, 6:53 AM)15% (Mar 14, 4:53 PM)29.94 "Hg (Mar 14, 6:53 PM)
Average62 °F61%30.11 "Hg
* Reported Mar 14 12:53 PM — Mar 29 12:53 PM, Santa Clara, Weather by CustomWeather, © 2015

Note: Actual official high and low records may vary slightly from our data, if they occured in-between our weather recording intervals... More about our weather records

Advertising

Santa Clara weather history for previous 24 hours

 ConditionsComfort  
Time TempWeatherWind HumidityBarometerVisibility
12:53 PM
Sun, Mar 29
73 °FPassing clouds.5 mph34%30.08 "Hg10 mi
11:53 AM69 °FPassing clouds.No wind45%30.10 "Hg10 mi
10:53 AM65 °FPassing clouds.No wind52%30.11 "Hg10 mi
9:53 AM61 °FPassing clouds.No wind60%30.12 "Hg10 mi
8:53 AM56 °FPassing clouds.No wind67%30.11 "Hg10 mi
7:53 AM50 °FPassing clouds.3 mph77%30.11 "Hg10 mi
6:53 AM50 °FPassing clouds.No wind74%30.11 "Hg10 mi
5:53 AM51 °FClear.No wind74%30.11 "Hg10 mi
4:53 AM50 °FClear.No wind80%30.11 "Hg10 mi
3:53 AM53 °FClear.No wind80%30.10 "Hg10 mi
2:53 AM55 °FClear.No wind74%30.10 "Hg10 mi
1:53 AM54 °FClear.No wind77%30.10 "Hg10 mi
12:53 AM57 °FClear.No wind74%30.12 "Hg10 mi
11:53 PM
Sat, Mar 28
57 °FClear.5 mph74%30.13 "Hg10 mi
10:53 PM56 °FClear.7 mph75%30.11 "Hg10 mi
9:53 PM60 °FClear.5 mph69%30.10 "Hg10 mi
8:53 PM61 °FClear.9 mph62%30.09 "Hg10 mi
7:53 PM63 °FPassing clouds.10 mph52%30.07 "Hg10 mi
6:53 PM70 °FPassing clouds.9 mph39%30.07 "Hg10 mi
5:53 PM73 °FScattered clouds.14 mph37%30.06 "Hg10 mi
4:53 PM77 °FScattered clouds.14 mph29%30.06 "Hg10 mi
3:53 PM76 °FScattered clouds.15 mph33%30.07 "Hg10 mi
2:53 PM76 °FScattered clouds.12 mph35%30.09 "Hg10 mi
1:53 PM74 °FScattered clouds.10 mph37%30.11 "Hg10 mi
Weather by CustomWeather, © 2015

See weather overviewHow to use our weather pages